Home   Weather   Shenyang   Past weeks

Flag for China Past Weather in Shenyang, Liaoning, China — Yesterday and Last 2 Weeks

Now
54 °F

Sunny.


Feels Like: 49 °F
Forecast: 39 / 62 °F
Wind: 15 mph from West

Location: Shenyang / Taoxian

Current Time: Apr 25, 2017 at 9:09:47 am

Latest Report: Apr 25, 2017 at 8:30 am


Visibility: 10 mi

Pressure: 30.09 "Hg

Humidity: 35%

Dew Point: 27 °F

Location of ShenyangLocation

Past Weather in Shenyang — Graph

°F

Shenyang Temperature Yesterday

Maximum temperature yesterday: 54 °F (at 3:00 pm)
Minimum temperature yesterday: 39 °F (at 3:30 am)
Average temperature yesterday: 46 °F

High & Low Weather Summary for the Past Weeks

 TemperatureHumidityPressure
High79 °F (Apr 15, 1:30 pm)94% (Apr 18, 1:30 am)30.07 "Hg (Apr 18, 1:30 am)
Low32 °F (Apr 12, 1:00 am)9% (Apr 12, 2:30 pm)29.33 "Hg (Apr 18, 6:00 am)
Average55 °F46%29.78 "Hg
* Reported Apr 10 7:00 am — Apr 25 7:30 am, Shenyang, Weather by CustomWeather, © 2017

Note: Actual official high and low records may vary slightly from our data, if they occured in-between our weather recording intervals... More about our weather records

Advertising

Shenyang Weather History for the Previous 24 Hours

Scroll right to see more
 ConditionsComfort  
Time TempWeatherWind HumidityBarometerVisibility
7:30 am
Tue, Apr 25
50 °FPassing clouds.8 mph43%30.07 "HgN/A
6:30 am43 °FSunny.3 mph71%30.07 "Hg10 mi
6:00 am39 °FSunny.6 mph75%30.07 "Hg10 mi
5:30 am37 °FSunny.6 mph87%30.04 "Hg10 mi
5:00 am37 °FSunny.3 mph87%30.04 "Hg10 mi
4:00 am37 °FClear.1 mph87%30.04 "Hg10 mi
3:30 am39 °FClear.No wind81%30.01 "Hg10 mi
3:00 am41 °FClear.3 mph81%30.01 "Hg10 mi
2:30 am37 °FClear.1 mph87%30.01 "Hg10 mi
2:00 am39 °FClear.1 mph87%29.98 "Hg10 mi
1:30 am43 °FClear.3 mph76%30.01 "Hg10 mi
1:00 am43 °FClear.6 mph81%30.01 "Hg10 mi
12:30 am43 °FClear.6 mph81%30.01 "Hg10 mi
12:00 am43 °FClear.6 mph81%30.01 "Hg10 mi
11:30 pm
Mon, Apr 24
43 °FPassing clouds.6 mph81%30.04 "HgN/A
11:00 pm43 °FClear.3 mph81%30.04 "Hg10 mi
10:30 pm43 °FPassing clouds.3 mph81%30.01 "HgN/A
10:00 pm43 °FClear.1 mph76%30.01 "Hg10 mi
9:30 pm43 °FClear.1 mph76%30.01 "Hg10 mi
9:00 pm45 °FPassing clouds.3 mph71%30.01 "HgN/A
8:30 pm45 °FClear.3 mph76%29.98 "Hg10 mi
8:00 pm46 °FPassing clouds.3 mph71%29.95 "HgN/A
7:30 pm46 °FPassing clouds.6 mph71%29.95 "HgN/A
7:00 pm48 °FClear.3 mph66%29.92 "Hg10 mi
6:30 pm50 °FPassing clouds.6 mph67%29.92 "HgN/A
6:00 pm52 °FPassing clouds.6 mph58%29.92 "HgN/A
5:30 pm52 °FPassing clouds.8 mph54%29.92 "HgN/A
5:00 pm52 °FPassing clouds.8 mph58%29.92 "HgN/A
4:30 pm54 °FSunny.8 mph58%29.92 "Hg10 mi
4:00 pm54 °FSunny.10 mph54%29.92 "Hg10 mi
3:30 pm54 °FPassing clouds.8 mph54%29.89 "HgN/A
3:00 pm54 °FPassing clouds.8 mph63%29.89 "HgN/A
2:30 pm52 °FPartly sunny.8 mph67%29.89 "HgN/A
2:00 pm50 °FPartly sunny.8 mph76%29.92 "HgN/A
1:30 pm48 °FOvercast.8 mph82%29.92 "HgN/A
1:00 pm48 °FOvercast.8 mph82%29.92 "HgN/A
12:30 pm46 °FOvercast.10 mph87%29.92 "HgN/A
12:00 pm46 °FOvercast.8 mph87%29.92 "HgN/A
11:30 am46 °FLight rain. Overcast.10 mph87%29.92 "Hg4 mi
10:30 am48 °FLight rain. Overcast.8 mph82%29.92 "Hg4 mi
10:00 am48 °FLight rain. Overcast.6 mph82%29.92 "Hg4 mi
9:30 am48 °FOvercast.1 mph76%29.95 "Hg4 mi
9:00 am48 °FOvercast.3 mph76%29.92 "Hg4 mi
Weather by CustomWeather, © 2017

See weather overviewHow to use our weather pages